Grand Rapids, MN

9:52 AM CST on February 22, 2018 (GMT -0600)
Grand Rapids-Itasca County-Newstrom Field

Weather History for KGPZ - July, 2013

Change the Weather History Date:

Sunday, July 21, 2013

  Actual Average Record
Temperature  
Mean Temperature 62 °F -  
Max Temperature 75 °F 79 °F 98 °F (1918)
Min Temperature 48 °F 53 °F 37 °F (1947)
Degree Days  
Heating Degree Days 4    
Growing Degree Days 12 (Base 50)    
Moisture  
Dew Point 50 °F    
Average Humidity 68    
Maximum Humidity 93    
Minimum Humidity 50    
Precipitation  
Precipitation 0.00 in - - ()
Sea Level Pressure  
Sea Level Pressure 29.93 in    
Wind  
Wind Speed 5 mph (SE)    
Max Wind Speed 14 mph    
Max Gust Speed 17 mph    
Visibility 10 miles    
Events      
Averages and records for this station are not official NWS values.
T = Trace of Precipitation, MM = Missing Value Source: NWS Daily Summary

Daily Weather History Graph

Daily Weather History Graph

Search for Another Location

Airport or City:

Trip Planner

Search our weather history database for the weather conditions in past years. The results will help you decide how hot, cold, wet, or windy it might be!

Date:

Astronomy

Jul. 21, 2013 Rise Set
Actual Time 5:40 AM CDT 9:00 PM CDT
Civil Twilight 5:02 AM CDT 9:37 PM CDT
Nautical Twilight 4:13 AM CDT 10:26 PM CDT
Astronomical Twilight 3:10 AM CDT 11:28 PM CDT
Moon 7:55 PM CDT (7/21) 4:28 AM CDT (7/21)
Length of Visible Light 16h 34m
Length of Day
15h 20m
Waxing Gibbous, 98% of the Moon is Illuminated
Jul 21
Waxing Gibbous
Jul 22
Full
Jul 29
Last Quarter
Aug 6
New
Aug 14
First Quarter

Hourly Weather History & Observations

Time (CDT) Temp. Dew Point Humidity Pressure Visibility Wind Dir Wind Speed Gust Speed Precip Events Conditions
12:15 AM 55.4 °F 46.4 °F 72% 30.00 in 10.0 mi SE 5.8 mph - N/A   Clear
12:35 AM 53.6 °F 46.4 °F 77% 30.00 in 10.0 mi SE 4.6 mph - N/A   Clear
12:55 AM 53.6 °F 46.4 °F 77% 29.99 in 10.0 mi SE 4.6 mph - N/A   Clear
1:15 AM 53.6 °F 46.4 °F 77% 30.00 in 10.0 mi SE 4.6 mph - N/A   Clear
1:35 AM 51.8 °F 46.4 °F 82% 30.01 in 10.0 mi SE 3.5 mph - N/A   Scattered Clouds
1:55 AM 51.8 °F 46.4 °F 82% 30.01 in 9.0 mi Calm Calm - N/A   Mostly Cloudy
2:15 AM 51.8 °F 46.4 °F 82% 30.01 in 10.0 mi SE 3.5 mph - N/A   Overcast
2:35 AM 51.8 °F 46.4 °F 82% 30.01 in 10.0 mi SE 3.5 mph - N/A   Mostly Cloudy
2:55 AM 51.8 °F 46.4 °F 82% 30.01 in 10.0 mi Calm Calm - N/A   Mostly Cloudy
3:15 AM 50.0 °F 46.4 °F 87% 30.00 in 10.0 mi Calm Calm - N/A   Scattered Clouds
3:35 AM 50.0 °F 46.4 °F 87% 29.99 in 10.0 mi Calm Calm - N/A   Clear
3:55 AM 50.0 °F 46.4 °F 87% 29.99 in 10.0 mi ESE 3.5 mph - N/A   Clear
4:15 AM 48.2 °F 46.4 °F 93% 29.99 in 10.0 mi Calm Calm - N/A   Clear
4:35 AM 48.2 °F 46.4 °F 93% 29.99 in 10.0 mi SE 3.5 mph - N/A   Partly Cloudy
4:55 AM 48.2 °F 46.4 °F 93% 29.99 in 10.0 mi Calm Calm - N/A   Scattered Clouds
5:15 AM 48.2 °F 44.6 °F 87% 29.99 in 10.0 mi Calm Calm - N/A   Partly Cloudy
5:35 AM 48.2 °F 44.6 °F 87% 29.99 in 10.0 mi Calm Calm - N/A   Partly Cloudy
5:55 AM 48.2 °F 46.4 °F 93% 29.99 in 10.0 mi Calm Calm - N/A   Mostly Cloudy
6:15 AM 48.2 °F 46.4 °F 93% 29.99 in 10.0 mi ESE 4.6 mph - N/A   Overcast
6:35 AM 50.0 °F 46.4 °F 87% 29.99 in 10.0 mi ESE 4.6 mph - N/A   Overcast
6:55 AM 50.0 °F 46.4 °F 87% 29.99 in 10.0 mi ESE 3.5 mph - N/A   Overcast
7:15 AM 51.8 °F 46.4 °F 82% 29.99 in 10.0 mi SE 3.5 mph - N/A   Overcast
7:35 AM 51.8 °F 48.2 °F 88% 29.99 in 10.0 mi SE 4.6 mph - N/A   Overcast
7:55 AM 53.6 °F 48.2 °F 82% 29.99 in 10.0 mi SE 4.6 mph - N/A   Overcast
8:15 AM 53.6 °F 46.4 °F 77% 29.99 in 10.0 mi SE 6.9 mph - N/A   Mostly Cloudy
8:35 AM 55.4 °F 46.4 °F 72% 29.99 in 10.0 mi SE 6.9 mph - N/A   Mostly Cloudy
8:55 AM 57.2 °F 46.4 °F 67% 29.99 in 10.0 mi SE 8.1 mph - N/A   Scattered Clouds
9:15 AM 59.0 °F 48.2 °F 67% 29.99 in 10.0 mi SSE 6.9 mph - N/A   Mostly Cloudy
9:35 AM 59.0 °F 46.4 °F 63% 29.99 in 10.0 mi SE 6.9 mph - N/A   Overcast
9:55 AM 60.8 °F 46.4 °F 59% 29.99 in 10.0 mi SSE 8.1 mph - N/A   Overcast
10:15 AM 62.6 °F 48.2 °F 59% 29.98 in 10.0 mi SSE 9.2 mph - N/A   Scattered Clouds
10:35 AM 62.6 °F 48.2 °F 59% 29.97 in 10.0 mi SE 9.2 mph - N/A   Mostly Cloudy
10:55 AM 62.6 °F 48.2 °F 59% 29.97 in 10.0 mi SSE 12.7 mph 16.1 mph N/A   Scattered Clouds
11:15 AM 64.4 °F 48.2 °F 56% 29.97 in 10.0 mi SE 8.1 mph - N/A   Clear
11:35 AM 66.2 °F 48.2 °F 52% 29.96 in 10.0 mi SE 5.8 mph - N/A   Partly Cloudy
11:55 AM 66.2 °F 50.0 °F 56% 29.96 in 10.0 mi SSE 8.1 mph - N/A   Clear
12:15 PM 68.0 °F 51.8 °F 56% 29.96 in 10.0 mi SSE 9.2 mph - N/A   Scattered Clouds
12:35 PM 69.8 °F 51.8 °F 53% 29.95 in 10.0 mi SSE 6.9 mph - N/A   Partly Cloudy
12:55 PM 69.8 °F 51.8 °F 53% 29.94 in 10.0 mi SSE 11.5 mph - N/A   Clear
1:15 PM 69.8 °F 51.8 °F 53% 29.93 in 10.0 mi South 6.9 mph - N/A   Clear
1:35 PM 71.6 °F 51.8 °F 50% 29.92 in 10.0 mi SE 8.1 mph 16.1 mph N/A   Clear
1:55 PM 71.6 °F 51.8 °F 50% 29.92 in 10.0 mi South 6.9 mph - N/A   Clear
2:15 PM 71.6 °F 53.6 °F 53% 29.91 in 10.0 mi South 10.4 mph - N/A   Partly Cloudy
2:35 PM 73.4 °F 53.6 °F 50% 29.90 in 10.0 mi ESE 6.9 mph - N/A   Scattered Clouds
2:55 PM 73.4 °F 53.6 °F 50% 29.90 in 10.0 mi SSE 4.6 mph - N/A   Mostly Cloudy
3:15 PM 73.4 °F 53.6 °F 50% 29.90 in 8.0 mi SSE 8.1 mph - N/A   Mostly Cloudy
3:35 PM 73.4 °F 53.6 °F 50% 29.90 in 10.0 mi SSE 8.1 mph - N/A   Scattered Clouds
3:55 PM 73.4 °F 55.4 °F 53% 29.89 in 8.0 mi SSE 9.2 mph - N/A   Scattered Clouds
4:15 PM 73.4 °F 55.4 °F 53% 29.88 in 10.0 mi South 8.1 mph - N/A   Scattered Clouds
4:35 PM 75.2 °F 55.4 °F 50% 29.87 in 10.0 mi South 13.8 mph - N/A   Mostly Cloudy
4:55 PM 75.2 °F 55.4 °F 50% 29.86 in 10.0 mi South 10.4 mph - N/A   Scattered Clouds
5:15 PM 75.2 °F 55.4 °F 50% 29.86 in 10.0 mi South 8.1 mph - N/A   Scattered Clouds
5:35 PM 75.2 °F 55.4 °F 50% 29.86 in 10.0 mi South 11.5 mph - N/A   Mostly Cloudy
5:55 PM 75.2 °F 55.4 °F 50% 29.85 in 10.0 mi South 10.4 mph 16.1 mph N/A   Scattered Clouds
6:15 PM 75.2 °F 57.2 °F 53% 29.84 in 7.0 mi SSE 9.2 mph - N/A   Mostly Cloudy
6:35 PM 73.4 °F 57.2 °F 57% 29.84 in 10.0 mi SSE 6.9 mph - N/A   Mostly Cloudy
6:55 PM 73.4 °F 57.2 °F 57% 29.83 in 9.0 mi SE 6.9 mph - N/A   Scattered Clouds
7:15 PM 73.4 °F 57.2 °F 57% 29.82 in 10.0 mi SSE 6.9 mph - N/A   Clear
7:35 PM 71.6 °F 59.0 °F 64% 29.82 in 9.0 mi SE 4.6 mph - N/A   Partly Cloudy
7:55 PM 71.6 °F 60.8 °F 69% 29.82 in 10.0 mi SE 6.9 mph - N/A   Clear
8:15 PM 69.8 °F 60.8 °F 73% 29.82 in 10.0 mi SSE 4.6 mph - N/A   Clear
8:35 PM 69.8 °F 59.0 °F 68% 29.82 in 10.0 mi SE 8.1 mph - N/A   Clear
8:55 PM 68.0 °F 57.2 °F 68% 29.82 in 10.0 mi SE 9.2 mph - N/A   Clear
9:15 PM 66.2 °F 55.4 °F 68% 29.81 in 10.0 mi SE 9.2 mph - N/A   Clear
9:35 PM 64.4 °F 53.6 °F 68% 29.82 in 10.0 mi SE 8.1 mph - N/A   Clear
9:55 PM 62.6 °F 51.8 °F 68% 29.82 in 10.0 mi SE 10.4 mph - N/A   Clear
10:15 PM 62.6 °F 51.8 °F 68% 29.83 in 10.0 mi SE 9.2 mph - N/A   Clear
10:35 PM 60.8 °F 50.0 °F 68% 29.82 in 10.0 mi SE 12.7 mph - N/A   Clear
10:55 PM 59.0 °F 48.2 °F 67% 29.82 in 10.0 mi SSE 10.4 mph - N/A   Clear
11:15 PM 59.0 °F 48.2 °F 67% 29.81 in 10.0 mi SE 10.4 mph 17.3 mph N/A   Clear
11:35 PM 57.2 °F 48.2 °F 72% 29.81 in 10.0 mi SE 8.1 mph - N/A   Clear
11:55 PM 57.2 °F 48.2 °F 72% 29.79 in 10.0 mi SE 9.2 mph - N/A   Clear